This demonstration page uses our WeatherBlox Daily Observations layout. Learn more.

Hourly Observations for May 15, 2018

Temp ( °F °C ) Dew Point ( °F °C ) Humidity (%) Winds ( mph kmh ) Pressure ( in mb ) Visibility ( mi km ) Precip ( " mm )
12:54 am 00:54 Cloudy 65 18.3 58 14.4 78 78 NNW 6 9 29.92 1013 10 16.0934 0 0
1:54 am 01:54 Mostly Clear 64 17.8 58 14.4 81 81 Calm 29.94 1014 10 16.0934 0 0
2:54 am 02:54 Cloudy 62 16.7 58 14.4 86 86 NW 5 7 29.95 1014 7 11.26538 0 0
3:54 am 03:54 Partly Cloudy with Mist and Fog 59 15 57 13.9 93 93 N 7 11 29.95 1014 6 9.65604 0 0
4:54 am 04:54 Clear 61 16.1 57 13.9 87 87 NNW 7 11 29.95 1014 7 11.26538 0 0
5:54 am 05:54 Partly Cloudy with Mist and Fog 56 13.3 55 12.8 97 97 N 5 7 29.97 1015 4 6.43736 0 0
6:54 am 06:54 Partly Cloudy with Mist and Fog 58 14.4 56 13.3 93 93 N 5 7 29.98 1015 4 6.43736 0 0
7:54 am 07:54 Sunny with Mist and Fog 62 16.7 58 14.4 86 86 N 6 9 30.01 1016 4 6.43736 0 0
8:54 am 08:54 Mostly Cloudy with Haze 66 18.9 60 15.6 81 81 NE 8 13 30.04 1017 6 9.65604 0 0
9:54 am 09:54 Mostly Cloudy 68 20 60 15.6 76 76 NE 10 17 30.03 1017 8 12.87472 0 0
10:02 am 10:02 Mostly Cloudy 69 20.6 59 15 70 70 NE 8 13 30.03 1017 9 14.48406 0 0
10:10 am 10:10 Mostly Cloudy 68 20 60 15.6 76 76 NNE 9 15 30.03 1017 9 14.48406 0 0
10:23 am 10:23 Mostly Cloudy 68 20 59 15 73 73 NE 9 15 30.03 1017 9 14.48406 0 0
10:37 am 10:37 Cloudy 70 21.1 60 15.6 71 71 NE 9 15 30.03 1017 10 16.0934 0 0
10:54 am 10:54 Cloudy 71 21.7 60 15.6 68 68 ENE 9 15 30.04 1017 10 16.0934 0 0
11:54 am 11:54 Mostly Cloudy 71 21.7 58 14.4 63 63 ENE 6 9 30.04 1017 10 16.0934 0 0
12:54 pm 12:54 Cloudy 73 22.8 58 14.4 59 59 NE 6 9 30.03 1017 10 16.0934 0 0
1:54 pm 13:54 Mostly Cloudy 76 24.4 57 13.9 52 52 ENE 5 7 30.01 1016 10 16.0934 0 0
2:54 pm 14:54 Mostly Cloudy 75 23.9 58 14.4 55 55 NE 10 17 29.99 1016 10 16.0934 0 0
3:54 pm 15:54 Mostly Cloudy 76 24.4 57 13.9 52 52 N 7 11 29.98 1015 10 16.0934 0 0
4:54 pm 16:54 Mostly Cloudy 76 24.4 56 13.3 50 50 NE 6 9 29.97 1015 10 16.0934 0 0
5:54 pm 17:54 Partly Cloudy 78 25.6 57 13.9 48 48 NE 7 11 29.96 1015 10 16.0934 0 0
6:54 pm 18:54 Mostly Sunny 76 24.4 56 13.3 50 50 NE 7 11 29.95 1014 10 16.0934 0 0
7:54 pm 19:54 Sunny 73 22.8 56 13.3 55 55 NE 8 13 29.94 1014 10 16.0934 0 0
8:54 pm 20:54 Clear 70 21.1 56 13.3 61 61 E 7 11 29.95 1014 10 16.0934 0 0
9:54 pm 21:54 Clear 67 19.4 56 13.3 68 68 Calm 29.97 1015 10 16.0934 0 0
10:54 pm 22:54 Clear 63 17.2 55 12.8 76 76 Calm 29.98 1015 10 16.0934 0 0
11:54 pm 23:54 Clear 58 14.4 55 12.8 90 90 NNW 3 6 29.98 1015 10 16.0934 0 0

Powered by AerisWeather